PHVDP EHRD-EHLE

Flight info

Callsign PHVDP
Flight time 0h 51m
Altitude 3000
Route MIKE DEP
Aircraft SR22/L-SDGRY/S

Departure

Time 2026-05-07 11:38
Airport Rotterdam The Hague Airport (EHRD)

Arrival

Time 2026-05-07 12:29
Airport Lelystad Airport (EHLE)
Time Latitude Longitude Altitude Speed Heading
2026-05-07 11:23 51.94927 4.42606 -10 ft 0 kts 144°
2026-05-07 11:34 51.94923 4.42612 -10 ft 1 kts 126°
2026-05-07 11:34 51.94929 4.42644 -11 ft 9 kts 54°
2026-05-07 11:35 51.94992 4.42744 -12 ft 15 kts 51°
2026-05-07 11:35 51.95061 4.42925 -12 ft 21 kts 58°
2026-05-07 11:35 51.95146 4.43121 -10 ft 12 kts 14°
2026-05-07 11:35 51.95198 4.43100 -10 ft 0 kts
2026-05-07 11:36 51.95203 4.43100 -10 ft 4 kts
2026-05-07 11:37 51.95278 4.43106 -10 ft 14 kts
2026-05-07 11:37 51.95372 4.43220 -9 ft 34 kts 54°
2026-05-07 11:37 51.95620 4.43874 18 ft 91 kts 57°
2026-05-07 11:37 51.95981 4.44813 234 ft 106 kts 54°
2026-05-07 11:38 51.96084 4.45998 541 ft 112 kts 108°
2026-05-07 11:38 51.95653 4.47182 637 ft 129 kts 128°
2026-05-07 11:38 51.95031 4.48265 824 ft 131 kts 119°
2026-05-07 11:38 51.94809 4.49671 1006 ft 127 kts 96°
2026-05-07 11:39 51.94769 4.51018 1320 ft 116 kts 86°
2026-05-07 11:39 51.94848 4.52272 1585 ft 109 kts 71°
2026-05-07 11:39 51.95147 4.53428 1705 ft 110 kts 66°
2026-05-07 11:39 51.95499 4.54465 1904 ft 102 kts 52°
2026-05-07 11:40 51.95914 4.55409 2066 ft 104 kts 58°
2026-05-07 11:40 51.96281 4.56474 2196 ft 113 kts 57°
2026-05-07 11:40 51.96748 4.57564 2348 ft 122 kts 56°
2026-05-07 11:40 51.97089 4.58806 2598 ft 123 kts 70°
2026-05-07 11:41 51.97444 4.60102 2777 ft 126 kts 56°
2026-05-07 11:41 51.97985 4.61250 2918 ft 132 kts 44°
2026-05-07 11:41 51.98651 4.62326 3054 ft 138 kts 44°
2026-05-07 11:41 51.99324 4.63481 3181 ft 143 kts 45°
2026-05-07 11:42 51.99992 4.64624 3144 ft 131 kts 45°
2026-05-07 11:42 52.00608 4.65653 3051 ft 126 kts 44°
2026-05-07 11:42 52.01214 4.66593 3010 ft 116 kts 43°
2026-05-07 11:42 52.01842 4.67487 3008 ft 122 kts 37°
2026-05-07 11:43 52.02533 4.68282 3014 ft 123 kts 32°
2026-05-07 11:43 52.03281 4.68935 2999 ft 125 kts 26°
2026-05-07 11:43 52.04102 4.69446 3007 ft 125 kts 18°
2026-05-07 11:43 52.04968 4.69687 2952 ft 132 kts
2026-05-07 11:44 52.05892 4.69682 3015 ft 129 kts
2026-05-07 11:44 52.06788 4.69766 3079 ft 129 kts
2026-05-07 11:44 52.07680 4.69861 3154 ft 127 kts
2026-05-07 11:44 52.08523 4.69959 3098 ft 116 kts
2026-05-07 11:45 52.09338 4.70044 2986 ft 117 kts
2026-05-07 11:45 52.10152 4.70123 2935 ft 118 kts
2026-05-07 11:45 52.10967 4.70320 2889 ft 116 kts 16°
2026-05-07 11:45 52.11657 4.71004 2769 ft 115 kts 41°
2026-05-07 11:46 52.12187 4.71946 2606 ft 113 kts 53°
2026-05-07 11:46 52.12575 4.73033 2265 ft 116 kts 66°
2026-05-07 11:46 52.12878 4.74299 1772 ft 123 kts 68°
2026-05-07 11:46 52.13133 4.75595 1424 ft 118 kts 77°
2026-05-07 11:47 52.13223 4.76893 1143 ft 114 kts 84°
2026-05-07 11:47 52.13247 4.78153 991 ft 111 kts 89°
2026-05-07 11:47 52.13230 4.79390 902 ft 107 kts 90°
2026-05-07 11:47 52.13186 4.80625 847 ft 113 kts 89°
2026-05-07 11:48 52.13443 4.81788 877 ft 112 kts 44°
2026-05-07 11:48 52.14056 4.82552 910 ft 113 kts 22°
2026-05-07 11:48 52.14803 4.82975 992 ft 112 kts 15°
2026-05-07 11:48 52.15519 4.83229 954 ft 97 kts 12°
2026-05-07 11:49 52.16151 4.83211 734 ft 92 kts 349°
2026-05-07 11:49 52.16772 4.82852 581 ft 94 kts 340°
2026-05-07 11:49 52.17366 4.82471 537 ft 88 kts 345°
2026-05-07 11:49 52.17948 4.82101 654 ft 92 kts 335°
2026-05-07 11:50 52.18549 4.81592 732 ft 106 kts 333°
2026-05-07 11:50 52.19224 4.80884 731 ft 123 kts 328°
2026-05-07 11:50 52.19965 4.80087 818 ft 130 kts 331°
2026-05-07 11:50 52.20740 4.79355 870 ft 129 kts 332°
2026-05-07 11:51 52.21550 4.78749 913 ft 127 kts 339°
2026-05-07 11:51 52.22346 4.78232 932 ft 118 kts 348°
2026-05-07 11:51 52.23089 4.77957 935 ft 100 kts 356°
2026-05-07 11:51 52.23758 4.77906 863 ft 95 kts
2026-05-07 11:52 52.24415 4.77882 760 ft 92 kts 360°
2026-05-07 11:52 52.25057 4.77853 661 ft 94 kts 359°
2026-05-07 11:52 52.25714 4.77824 608 ft 94 kts
2026-05-07 11:52 52.26371 4.77779 549 ft 97 kts 358°
2026-05-07 11:53 52.26989 4.77736 493 ft 81 kts
2026-05-07 11:53 52.27537 4.77743 404 ft 77 kts
2026-05-07 11:53 52.28045 4.77757 320 ft 70 kts
2026-05-07 11:53 52.28529 4.77795 246 ft 70 kts
2026-05-07 11:54 52.29023 4.77842 176 ft 70 kts
2026-05-07 11:54 52.29507 4.77903 108 ft 68 kts
2026-05-07 11:54 52.29923 4.78202 39 ft 66 kts 36°
2026-05-07 11:54 52.30266 4.78684 -5 ft 60 kts 41°
2026-05-07 11:55 52.30632 4.79203 54 ft 77 kts 44°
2026-05-07 11:55 52.31005 4.79805 289 ft 73 kts 46°
2026-05-07 11:55 52.31448 4.80453 348 ft 101 kts 40°
2026-05-07 11:55 52.32006 4.81266 554 ft 112 kts 50°
2026-05-07 11:56 52.32132 4.82448 803 ft 115 kts 112°
2026-05-07 11:56 52.31750 4.83681 915 ft 126 kts 118°
2026-05-07 11:56 52.31126 4.84611 980 ft 125 kts 163°
2026-05-07 11:56 52.30325 4.84399 952 ft 116 kts 204°
2026-05-07 11:57 52.29641 4.83770 894 ft 111 kts 215°
2026-05-07 11:57 52.29055 4.82982 834 ft 109 kts 224°
2026-05-07 11:57 52.28509 4.82108 753 ft 107 kts 228°
2026-05-07 11:57 52.28207 4.81159 703 ft 89 kts 265°
2026-05-07 11:58 52.28137 4.80219 589 ft 79 kts 236°
2026-05-07 11:58 52.27718 4.79616 501 ft 81 kts 220°
2026-05-07 11:58 52.27542 4.78843 426 ft 76 kts 271°
2026-05-07 11:58 52.27195 4.78438 450 ft 73 kts 143°
2026-05-07 11:59 52.27184 4.79124 505 ft 71 kts 29°
2026-05-07 11:59 52.27454 4.78720 544 ft 76 kts 239°
2026-05-07 11:59 52.27008 4.78643 531 ft 72 kts 126°
2026-05-07 11:59 52.27095 4.79335 483 ft 71 kts 26°
2026-05-07 12:00 52.27474 4.79032 467 ft 75 kts 282°
2026-05-07 12:00 52.27145 4.78598 450 ft 75 kts 143°
2026-05-07 12:00 52.27272 4.79056 472 ft 70 kts 341°
2026-05-07 12:00 52.27733 4.78745 455 ft 71 kts 342°
2026-05-07 12:01 52.28210 4.78508 443 ft 71 kts 348°
2026-05-07 12:01 52.28677 4.78310 339 ft 68 kts 349°
2026-05-07 12:01 52.29145 4.78171 264 ft 69 kts 355°
2026-05-07 12:01 52.29621 4.78092 159 ft 69 kts
2026-05-07 12:02 52.30048 4.78371 50 ft 68 kts 45°
2026-05-07 12:02 52.30391 4.78867 -5 ft 62 kts 42°
2026-05-07 12:02 52.30773 4.79411 75 ft 85 kts 41°
2026-05-07 12:02 52.31232 4.80072 343 ft 91 kts 40°
2026-05-07 12:03 52.31736 4.80757 576 ft 100 kts 39°
2026-05-07 12:03 52.32354 4.81534 659 ft 124 kts 42°
2026-05-07 12:03 52.32528 4.82875 824 ft 136 kts 108°
2026-05-07 12:03 52.32193 4.84336 926 ft 131 kts 121°
2026-05-07 12:04 52.31425 4.84792 970 ft 125 kts 196°
2026-05-07 12:04 52.30645 4.84205 922 ft 124 kts 208°
2026-05-07 12:04 52.29891 4.83692 1010 ft 108 kts 178°
2026-05-07 12:04 52.29358 4.84305 923 ft 95 kts 101°
2026-05-07 12:05 52.29576 4.85239 799 ft 92 kts 33°
2026-05-07 12:05 52.30144 4.85151 740 ft 91 kts 315°
2026-05-07 12:05 52.30158 4.84203 701 ft 95 kts 230°
2026-05-07 12:05 52.29699 4.83359 591 ft 102 kts 228°
2026-05-07 12:06 52.29208 4.82554 497 ft 100 kts 226°
2026-05-07 12:06 52.28699 4.81744 400 ft 102 kts 224°
2026-05-07 12:06 52.28422 4.80795 339 ft 96 kts 292°
2026-05-07 12:06 52.28839 4.79985 249 ft 93 kts 326°
2026-05-07 12:07 52.29365 4.79348 208 ft 94 kts 325°
2026-05-07 12:07 52.29861 4.78636 161 ft 84 kts 320°
2026-05-07 12:07 52.30257 4.78705 28 ft 65 kts 37°
2026-05-07 12:07 52.30593 4.79150 -5 ft 68 kts 41°
2026-05-07 12:08 52.30989 4.79726 100 ft 78 kts 41°
2026-05-07 12:08 52.31410 4.80271 277 ft 79 kts 44°
2026-05-07 12:08 52.31799 4.80953 396 ft 86 kts 53°
2026-05-07 12:08 52.32108 4.81845 552 ft 93 kts 63°
2026-05-07 12:09 52.32398 4.82821 689 ft 100 kts 63°
2026-05-07 12:09 52.32807 4.83772 835 ft 104 kts 51°
2026-05-07 12:09 52.33253 4.84667 939 ft 100 kts 48°
2026-05-07 12:09 52.33684 4.85506 934 ft 94 kts 47°
2026-05-07 12:10 52.34139 4.86238 855 ft 89 kts 41°
2026-05-07 12:10 52.34641 4.86823 775 ft 89 kts 33°
2026-05-07 12:10 52.35185 4.87311 711 ft 89 kts 28°
2026-05-07 12:10 52.35737 4.87750 665 ft 86 kts 30°
2026-05-07 12:11 52.36279 4.88187 592 ft 87 kts 30°
2026-05-07 12:11 52.36795 4.88667 536 ft 86 kts 34°
2026-05-07 12:11 52.37277 4.89212 508 ft 82 kts 39°
2026-05-07 12:11 52.37691 4.89803 498 ft 80 kts 50°
2026-05-07 12:12 52.38012 4.90624 512 ft 90 kts 58°
2026-05-07 12:12 52.38424 4.91540 642 ft 110 kts 50°
2026-05-07 12:12 52.38885 4.92617 835 ft 119 kts 54°
2026-05-07 12:12 52.39413 4.93675 1083 ft 121 kts 50°
2026-05-07 12:13 52.39867 4.94773 1337 ft 119 kts 58°
2026-05-07 12:13 52.40035 4.96046 1555 ft 117 kts 82°
2026-05-07 12:13 52.40047 4.97387 1723 ft 119 kts 87°
2026-05-07 12:13 52.39989 4.98812 1856 ft 130 kts 88°
2026-05-07 12:14 52.39909 5.00237 2128 ft 129 kts 93°
2026-05-07 12:14 52.39791 5.01686 2344 ft 129 kts 95°
2026-05-07 12:14 52.39652 5.03128 2616 ft 127 kts 97°
2026-05-07 12:14 52.39483 5.04568 2793 ft 132 kts 98°
2026-05-07 12:15 52.39292 5.06020 2967 ft 135 kts 101°
2026-05-07 12:15 52.39061 5.07406 3047 ft 110 kts 102°
2026-05-07 12:15 52.38837 5.08498 2864 ft 95 kts 105°
2026-05-07 12:15 52.38601 5.09474 2730 ft 92 kts 108°
2026-05-07 12:16 52.38311 5.10450 2551 ft 98 kts 116°
2026-05-07 12:16 52.37945 5.11419 2370 ft 100 kts 115°
2026-05-07 12:16 52.37605 5.12338 2340 ft 89 kts 113°
2026-05-07 12:16 52.37355 5.13154 2257 ft 88 kts 109°
2026-05-07 12:17 52.37294 5.13363 2238 ft 87 kts 108°
2026-05-07 12:17 52.37093 5.14304 2122 ft 88 kts 101°
2026-05-07 12:17 52.36886 5.15246 2059 ft 86 kts 106°
2026-05-07 12:17 52.36645 5.16153 2027 ft 87 kts 105°
2026-05-07 12:18 52.36441 5.17081 2129 ft 86 kts 97°
2026-05-07 12:18 52.36345 5.18046 2293 ft 90 kts 89°
2026-05-07 12:18 52.36264 5.19150 2477 ft 106 kts 95°
2026-05-07 12:18 52.36155 5.20385 2748 ft 109 kts 88°
2026-05-07 12:19 52.36174 5.21600 3002 ft 111 kts 78°
2026-05-07 12:19 52.36296 5.22827 3011 ft 101 kts 75°
2026-05-07 12:19 52.36441 5.23904 2946 ft 94 kts 72°
2026-05-07 12:19 52.36601 5.24876 2937 ft 86 kts 69°
2026-05-07 12:20 52.36791 5.25796 2894 ft 83 kts 65°
2026-05-07 12:20 52.37018 5.26649 2841 ft 81 kts 60°
2026-05-07 12:20 52.37257 5.27464 2810 ft 77 kts 58°
2026-05-07 12:20 52.37483 5.28223 2791 ft 72 kts 62°
2026-05-07 12:21 52.37681 5.29002 2704 ft 76 kts 68°
2026-05-07 12:21 52.37808 5.29876 2603 ft 82 kts 76°
2026-05-07 12:21 52.37909 5.30795 2550 ft 80 kts 74°
2026-05-07 12:21 52.37981 5.31713 2551 ft 82 kts 82°
2026-05-07 12:22 52.37976 5.32633 2569 ft 83 kts 88°
2026-05-07 12:22 52.37902 5.33592 2564 ft 86 kts 94°
2026-05-07 12:22 52.37746 5.34547 2577 ft 87 kts 101°
2026-05-07 12:22 52.37575 5.35367 2565 ft 89 kts 97°
2026-05-07 12:23 52.37472 5.36016 2608 ft 84 kts 99°
2026-05-07 12:23 52.37517 5.36935 2587 ft 85 kts 73°
2026-05-07 12:23 52.37649 5.37886 2594 ft 85 kts 71°
2026-05-07 12:23 52.37826 5.38800 2606 ft 83 kts 60°
2026-05-07 12:24 52.38096 5.39664 2578 ft 84 kts 55°
2026-05-07 12:24 52.38435 5.40419 2580 ft 81 kts 50°
2026-05-07 12:24 52.38719 5.41214 2567 ft 81 kts 64°
2026-05-07 12:24 52.39105 5.41879 2244 ft 88 kts 32°
2026-05-07 12:25 52.39623 5.42395 1971 ft 84 kts 30°
2026-05-07 12:25 52.40111 5.42863 1721 ft 78 kts 35°
2026-05-07 12:25 52.40511 5.43424 1451 ft 78 kts 40°
2026-05-07 12:25 52.40923 5.44020 1166 ft 77 kts 40°
2026-05-07 12:26 52.41305 5.44588 970 ft 72 kts 36°
2026-05-07 12:26 52.41688 5.45114 815 ft 72 kts 33°
2026-05-07 12:26 52.42043 5.45684 714 ft 67 kts 47°
2026-05-07 12:26 52.42356 5.46247 625 ft 68 kts 50°
2026-05-07 12:27 52.42677 5.46792 548 ft 67 kts 40°
2026-05-07 12:27 52.42993 5.47332 471 ft 65 kts 46°
2026-05-07 12:27 52.43283 5.47906 386 ft 65 kts 46°
2026-05-07 12:27 52.43596 5.48462 300 ft 66 kts 43°
2026-05-07 12:28 52.43916 5.49018 236 ft 65 kts 44°
2026-05-07 12:28 52.44222 5.49512 143 ft 60 kts 50°
2026-05-07 12:28 52.44514 5.50033 71 ft 60 kts 44°
2026-05-07 12:28 52.44799 5.50523 5 ft 60 kts 50°
2026-05-07 12:29 52.45074 5.51016 -15 ft 55 kts 46°
2026-05-07 12:29 52.45295 5.51417 -12 ft 34 kts 58°
2026-05-07 12:29 52.45304 5.51529 -12 ft 5 kts 127°
2026-05-07 12:29 52.45258 5.51595 -12 ft 14 kts 131°
2026-05-07 12:30 52.45239 5.51696 -12 ft 10 kts 45°
2026-05-07 12:30 52.45299 5.51805 -12 ft 18 kts 54°
2026-05-07 12:30 52.45417 5.52016 -12 ft 25 kts 52°
2026-05-07 12:30 52.45450 5.52138 -12 ft 5 kts 143°
2026-05-07 12:31 52.45440 5.52184 -12 ft 0 kts 276°